CW4772 Weather Reports


time (UTC)temp
F
wind
direction
speed
knots
gust
knots
rain 1hr
in
rain 24hr
in
rain mn
in
humidity
%
barometer
mb
20260507164204 60 281 1.7 7.8 0.00 0.00 0.00 67 1010.9
20260507163203 60 300 2.6 7.8 0.00 0.00 0.00 66 1010.9
20260507162703 60 301 2.6 8.7 0.00 0.00 0.00 66 1010.9
20260507160703 61 320 2.6 7.0 0.00 0.00 0.00 66 1010.7
20260507155704 61 303 2.6 7.0 0.00 0.00 0.00 65 1010.7
20260507154204 60 268 1.7 7.0 0.00 0.00 0.00 66 1010.8
20260507153703 61 319 1.7 7.0 0.00 0.00 0.00 64 1010.8
20260507152704 61 303 3.5 7.8 0.00 0.00 0.00 63 1010.9
20260507151703 62 280 2.6 7.8 0.00 0.00 0.00 62 1010.8
20260507151204 63 314 2.6 7.8 0.00 0.00 0.00 61 1010.7
20260507145204 61 288 2.6 11.3 0.00 0.00 0.00 63 1010.7
20260507144703 63 304 6.1 11.3 0.00 0.00 0.00 61 1010.7
20260507144204 62 283 2.6 10.4 0.00 0.00 0.00 61 1010.6
20260507143704 62 292 3.5 8.7 0.00 0.00 0.00 61 1010.6
20260507143203 62 293 3.5 10.4 0.00 0.00 0.00 61 1010.6
20260507142705 62 240 5.2 12.2 0.00 0.00 0.00 60 1010.7
20260507142204 62 241 5.2 12.2 0.00 0.00 0.00 60 1010.6
20260507141703 63 271 5.2 10.4 0.00 0.00 0.00 60 1010.6
20260507141203 62 306 4.3 10.4 0.00 0.00 0.00 60 1010.6
20260507135204 63 292 5.2 10.4 0.00 0.00 0.00 61 1010.6
20260507134704 63 257 4.3 14.8 0.00 0.00 0.00 63 1010.7
20260507133703 62 239 6.1 13.0 0.00 0.00 0.00 64 1010.7
20260507133204 62 280 5.2 13.0 0.00 0.00 0.00 63 1010.7
20260507132703 62 300 5.2 13.0 0.00 0.00 0.00 64 1010.7
20260507132204 62 268 2.6 10.4 0.00 0.00 0.00 65 1010.7
20260507131703 63 294 6.1 12.2 0.00 0.00 0.00 65 1010.7
20260507131204 62 250 6.1 12.2 0.00 0.00 0.00 65 1010.7
20260507130204 62 298 3.5 13.9 0.00 0.00 0.00 66 1010.7
20260507124704 62 281 5.2 13.9 0.00 0.00 0.00 65 1010.6
20260507124204 63 244 4.3 13.9 0.00 0.00 0.00 64 1010.5
20260507123704 63 285 6.1 11.3 0.00 0.00 0.00 64 1010.5
20260507123203 64 250 4.3 11.3 0.00 0.00 0.00 63 1010.5
20260507122705 64 262 5.2 11.3 0.00 0.00 0.00 62 1010.4
20260507121204 61 269 2.6 10.4 0.00 0.00 0.00 66 1010.5
20260507120204 62 261 4.3 10.4 0.00 0.00 0.00 63 1010.5
20260507115704 62 245 2.6 11.3 0.00 0.00 0.00 64 1010.5
20260507115204 63 291 4.3 11.3 0.00 0.00 0.00 65 1010.5
20260507114204 63 245 2.6 10.4 0.00 0.00 0.00 65 1010.4
20260507112204 62 234 4.3 10.4 0.00 0.00 0.00 65 1010.4
20260507111704 62 269 4.3 13.9 0.00 0.00 0.00 63 1010.4
20260507111204 63 225 6.1 13.9 0.00 0.00 0.00 62 1010.4
20260507110704 63 223 7.0 13.0 0.00 0.00 0.00 62 1010.4
20260507104704 62 246 4.3 10.4 0.00 0.00 0.00 67 1010.4
20260507104204 62 252 5.2 13.0 0.00 0.00 0.00 66 1010.5
20260507102204 62 286 4.3 11.3 0.00 0.00 0.00 65 1010.4
20260507101704 61 237 5.2 11.3 0.00 0.00 0.00 66 1010.5
20260507100704 60 211 2.6 10.4 0.00 0.00 0.00 68 1010.3
20260507093204 62 239 5.2 13.9 0.00 0.00 0.00 68 1010.1
20260507092204 61 226 6.1 10.4 0.00 0.00 0.00 70 1010.0
20260507091703 59 243 6.1 10.4 0.00 0.00 0.00 71 1009.9
20260507090704 60 199 5.2 10.4 0.00 0.00 0.00 68 1009.8
20260507085704 60 270 5.2 11.3 0.00 0.00 0.00 71 1009.8
20260507084203 61 232 5.2 12.2 0.00 0.00 0.00 71 1009.7
20260507083703 60 234 6.1 10.4 0.00 0.00 0.00 73 1009.6
20260507083204 58 212 5.2 11.3 0.00 0.00 0.00 73 1009.6
20260507082704 59 229 5.2 11.3 0.00 0.00 0.00 73 1009.5
20260507080704 58 254 2.6 10.4 0.00 0.00 0.00 74 1009.3
20260507075204 57 239 5.2 12.2 0.00 0.00 0.00 74 1009.4
20260507074204 58 235 3.5 12.2 0.00 0.00 0.00 74 1009.3
20260507073704 57 231 6.1 12.2 0.00 0.00 0.00 73 1009.1
20260507072704 55 251 4.3 12.2 0.00 0.00 0.00 77 1009.2
20260507072204 55 227 5.2 12.2 0.00 0.00 0.00 78 1009.2
20260507070704 55 229 4.3 11.3 0.00 0.00 0.00 80 1009.2
20260507065704 53 227 5.2 11.3 0.00 0.00 0.00 84 1009.2
20260507064204 51 230 6.1 10.4 0.00 0.00 0.00 86 1009.1
20260507061704 52 244 5.2 11.3 0.00 0.00 0.00 86 1009.1
20260507061204 52 242 6.1 11.3 0.00 0.00 0.00 87 1009.1
20260507055204 50 225 4.3 10.4 0.00 0.00 0.00 90 1008.8
20260507051705 50 220 3.5 7.0 0.00 0.00 0.00 93 1008.3
20260507050704 50 244 4.3 7.8 0.00 0.00 0.00 93 1008.1
20260507045704 50 226 4.3 7.8 0.00 0.00 0.00 94 1008.1
20260507044204 49 225 2.6 6.1 0.00 0.00 0.00 95 1007.9
20260507042204 49 220 1.7 2.6 0.00 0.00 0.00 95 1007.8
20260507041704 49 251 1.7 2.6 0.00 0.00 0.00 95 1007.6
20260507034704 50 214 0.9 2.6 0.00 0.00 0.00 94 1007.4
20260507034205 50 207 1.7 2.6 0.00 0.00 0.00 94 1007.3
20260507033705 50 230 0.9 2.6 0.00 0.00 0.00 94 1007.1
20260507033204 50 230 0.9 4.3 0.00 0.00 0.00 94 1007.1
20260507032704 50 230 1.7 4.3 0.00 0.00 0.00 94 1007.1
20260507032203 51 227 1.7 4.3 0.00 0.00 0.00 94 1007.1
20260507031204 51 233 1.7 5.2 0.00 0.00 0.00 94 1007.0
20260507030704 51 223 1.7 5.2 0.00 0.00 0.00 94 1007.0
20260507025705 51 213 2.6 7.0 0.00 0.00 0.00 94 1006.9
20260507025204 51 225 2.6 7.0 0.00 0.00 0.00 95 1006.8
20260507024704 51 261 2.6 7.0 0.00 0.00 0.00 95 1006.7
20260507023705 51 256 1.7 6.1 0.00 0.00 0.00 95 1006.8
20260507021204 52 239 1.7 4.3 0.00 0.00 0.00 95 1006.6
20260507015704 52 225 2.6 7.0 0.00 0.00 0.00 95 1006.6
20260507013704 52 226 1.7 4.3 0.00 0.00 0.00 95 1006.3
20260507012205 52 233 2.6 6.1 0.00 0.00 0.00 95 1006.4
20260507011704 52 218 1.7 4.3 0.00 0.00 0.00 95 1006.5
20260507005204 53 245 0.9 4.3 0.00 0.00 0.00 95 1006.3
20260507003705 53 223 2.6 5.2 0.00 0.00 0.00 94 1006.2
20260507003204 53 239 2.6 5.2 0.00 0.00 0.00 94 1006.0
20260507002204 53 281 0.9 2.6 0.00 0.00 0.00 93 1005.9
20260507001205 53 260 1.7 4.3 0.00 0.00 0.00 93 1005.9
20260507000704 53 259 0.9 2.6 0.00 0.00 0.00 93 1005.8
20260507000205 54 257 1.7 2.6 0.00 0.00 0.00 92 1005.8
20260506235204 54 290 0.9 6.1 0.00 0.00 0.00 92 1005.6
20260506233704 54 249 2.6 10.4 0.00 0.00 0.00 93 1005.9
20260506233204 54 252 4.3 10.4 0.00 0.00 0.00 93 1005.9
20260506232705 54 250 4.3 8.7 0.00 0.00 0.00 93 1005.8
20260506231704 54 249 2.6 10.4 0.00 0.00 0.00 93 1005.5
20260506230704 54 273 3.5 10.4 0.00 0.00 0.00 93 1005.2
20260506230205 54 223 3.5 7.0 0.00 0.00 0.00 93 1005.1
20260506225704 54 237 0.9 7.0 0.00 0.00 0.00 93 1005.0
20260506224705 54 246 1.7 5.2 0.00 0.00 0.00 92 1004.9
20260506223204 55 288 0.9 5.2 0.00 0.00 0.00 92 1004.6
20260506222705 55 262 0.9 7.8 0.00 0.00 0.00 92 1004.6
20260506222204 55 265 2.6 7.8 0.00 0.00 0.00 91 1004.6
20260506221704 55 261 1.7 7.0 0.00 0.00 0.00 91 1004.7
20260506220706 55 246 2.6 7.8 0.00 0.00 0.00 91 1004.5
20260506215704 54 323 1.7 2.6 0.00 0.00 0.00 91 1003.9
20260506214705 54 32 0.9 2.6 0.00 0.00 0.00 91 1003.5
20260506214204 54 29 0.9 2.6 0.00 0.00 0.00 91 1003.5
20260506213705 55 27 0.9 4.3 0.00 0.00 0.00 91 1003.3
20260506213204 55 355 0.9 4.3 0.00 0.00 0.00 90 1003.4
20260506212704 55 312 1.7 7.0 0.00 0.00 0.00 90 1003.6
20260506212204 55 282 2.6 8.7 0.00 0.00 0.00 90 1003.8
20260506211704 55 280 2.6 8.7 0.00 0.00 0.00 90 1003.7
20260506211204 55 279 4.3 8.7 0.00 0.00 0.00 90 1003.6
20260506210704 55 269 2.6 7.8 0.00 0.00 0.00 90 1003.6
20260506205203 55 280 5.2 11.3 0.00 0.00 0.00 89 1003.8
20260506204703 56 268 4.3 11.3 0.00 0.00 0.00 89 1003.8
20260506204203 56 279 5.2 13.0 0.00 0.00 0.00 88 1003.6
20260506203204 57 301 7.0 13.9 0.00 0.00 0.00 87 1003.5
20260506201203 58 268 5.2 12.2 0.00 0.00 0.00 86 1003.1
20260506200704 58 287 1.7 2.6 0.00 0.00 0.00 87 1002.6
20260506195203 57 25 3.5 7.0 0.00 0.00 0.00 87 1002.0
20260506193703 58 27 2.6 7.8 0.00 0.00 0.00 89 1001.9
20260506193203 58 33 2.6 7.8 0.00 0.00 0.00 88 1001.9
20260506192704 58 30 2.6 6.1 0.00 0.00 0.00 88 1001.8
20260506192203 59 25 1.7 6.1 0.00 0.00 0.00 87 1001.9
20260506191204 60 21 1.7 4.3 0.00 0.00 0.00 84 1001.6
20260506185703 60 44 1.7 2.6 0.00 0.00 0.00 81 1001.5
20260506185204 60 331 1.7 2.6 0.00 0.00 0.00 79 1001.4
20260506184703 61 339 1.7 2.6 0.00 0.00 0.00 75 1001.3
20260506184204 62 305 1.7 2.6 0.00 0.00 0.00 72 1001.3
20260506183704 63 57 0.0 2.6 0.00 0.00 0.00 72 1001.1
20260506181704 63 75 1.7 2.6 0.00 0.00 0.00 70 1000.7
20260506181203 64 81 1.7 5.2 0.00 0.00 0.00 70 1000.9
20260506175703 64 94 1.7 2.6 0.00 0.00 0.00 69 1000.9
20260506175203 64 95 1.7 2.6 0.00 0.00 0.00 68 1000.8
20260506172705 66 111 3.5 7.0 0.00 0.00 0.00 64 1000.8
20260506171703 67 142 2.6 10.4 0.00 0.00 0.00 63 1000.8
20260506170703 67 120 4.3 7.8 0.00 0.00 0.00 62 1001.0
20260506170203 68 125 2.6 8.7 0.00 0.00 0.00 61 1001.0
20260506165703 68 125 5.2 10.4 0.00 0.00 0.00 61 1001.1
20260506165203 68 132 7.0 13.0 0.00 0.00 0.00 61 1001.1
20260506164703 69 145 6.1 13.0 0.00 0.00 0.00 61 1001.2